Osijek / Cepin, Croatia

5:47 PM CET on January 20, 2017 (GMT +0100)
Osijek - Cepin

Weather History for LDOS - November, 2012

Change the Weather History Date:

Sunday, November 18, 2012

  Actual Average Record
Temperature  
Mean Temperature 48 °F -  
Max Temperature 57 °F - - ()
Min Temperature 39 °F - - ()
Degree Days  
Heating Degree Days 17    
Moisture  
Dew Point 43 °F    
Average Humidity 88    
Maximum Humidity 100    
Minimum Humidity 67    
Precipitation  
Precipitation 0.00 in - - ()
Sea Level Pressure  
Sea Level Pressure 30.03 in    
Wind  
Wind Speed 5 mph ()    
Max Wind Speed 9 mph    
Max Gust Speed -    
Visibility 4.2 miles    
Events      
T = Trace of Precipitation, MM = Missing Value Source: Averaged Metar Reports

Daily Weather History Graph

Daily Weather History Graph

Search for Another Location

Airport or City:

Trip Planner

Search our weather history database for the weather conditions in past years. The results will help you decide how hot, cold, wet, or windy it might be!

Date:

Astronomy

Nov. 18, 2012 Rise Set
Actual Time 6:49 AM CET 4:11 PM CET
Civil Twilight 6:16 AM CET 4:44 PM CET
Nautical Twilight 5:40 AM CET 5:20 PM CET
Astronomical Twilight 5:05 AM CET 5:55 PM CET
Moon 11:01 AM CET (11/18) 9:14 PM CET (11/18)
Length of Visible Light 10h 27m
Length of Day
9h 22m
Waxing Crescent, 27% of the Moon is Illuminated
Nov 18
Waxing Crescent
Nov 20
First Quarter
Nov 28
Full
Dec 6
Last Quarter
Dec 13
New

Hourly Weather History & Observations

Time (CET) Temp. Windchill Dew Point Humidity Pressure Visibility Wind Dir Wind Speed Gust Speed Precip Events Conditions
12:00 AM 41.0 °F 38.0 °F 39.2 °F 93% 30.04 in 3.7 mi East 4.6 mph - N/A   Unknown
12:30 AM 41.0 °F 37.1 °F 39.2 °F 93% 30.04 in 3.7 mi ENE 5.8 mph - N/A   Unknown
1:00 AM 39.2 °F 34.2 °F 37.4 °F 93% 30.04 in 3.7 mi East 6.9 mph - N/A   Unknown
1:30 AM 39.2 °F 37.0 °F 37.4 °F 93% 30.04 in 3.7 mi East 3.5 mph - N/A   Unknown
2:00 AM 39.2 °F 35.9 °F 37.4 °F 93% 30.04 in 3.7 mi ENE 4.6 mph - N/A   Unknown
2:30 AM 39.2 °F 34.2 °F 37.4 °F 93% 30.04 in 3.7 mi ENE 6.9 mph - N/A   Unknown
3:00 AM 39.2 °F 35.9 °F 37.4 °F 93% 30.04 in 3.7 mi East 4.6 mph - N/A   Unknown
3:30 AM 39.2 °F 35.0 °F 37.4 °F 93% 30.04 in 5.0 mi East 5.8 mph - N/A   Unknown
4:00 AM 41.0 °F - 39.2 °F 93% 30.04 in 5.0 mi Calm Calm - N/A   Unknown
5:00 AM 41.0 °F - 39.2 °F 93% 30.04 in 5.0 mi Calm Calm - N/A   Unknown
5:30 AM 41.0 °F - 39.2 °F 93% 30.04 in 5.0 mi East 2.3 mph - N/A   Unknown
6:00 AM 41.0 °F 36.4 °F 39.2 °F 93% 30.01 in - East 6.9 mph - N/A   Clear
6:30 AM 41.0 °F - 39.2 °F 93% 30.04 in - ENE 1.2 mph - N/A   Clear
7:00 AM 41.0 °F - 39.2 °F 93% 30.04 in - NE 2.3 mph - N/A   Clear
7:30 AM 41.0 °F - 39.2 °F 93% 30.04 in - Calm Calm - N/A   Clear
8:00 AM 41.0 °F 39.0 °F 41.0 °F 100% 30.04 in 3.1 mi NE 3.5 mph - N/A   Mist
8:30 AM 44.6 °F 43.1 °F 42.8 °F 93% 30.04 in 4.3 mi NE 3.5 mph - N/A   Unknown
9:00 AM 46.4 °F 45.2 °F 44.6 °F 93% 30.04 in - East 3.5 mph - N/A   Clear
9:30 AM 48.2 °F - 44.6 °F 87% 30.04 in - SE 4.6 mph - N/A   Clear
10:00 AM 48.2 °F - 44.6 °F 87% 30.04 in - SE 5.8 mph - N/A   Clear
10:30 AM 50.0 °F - 46.4 °F 87% 30.04 in - ESE 4.6 mph - N/A   Clear
11:00 AM 51.8 °F - 46.4 °F 82% 30.04 in - ESE 4.6 mph - N/A   Clear
11:30 AM 53.6 °F - 46.4 °F 77% 30.01 in - East 6.9 mph - N/A   Clear
12:00 PM 53.6 °F - 48.2 °F 82% 30.01 in - East 6.9 mph - N/A   Clear
12:30 PM 53.6 °F - 48.2 °F 82% 30.01 in - ESE 6.9 mph - N/A   Clear
1:00 PM 55.4 °F - 48.2 °F 77% 30.01 in - East 8.1 mph - N/A   Clear
1:30 PM 55.4 °F - 48.2 °F 77% 30.01 in - East 8.1 mph - N/A   Clear
2:00 PM 55.4 °F - 46.4 °F 72% 30.01 in - East 8.1 mph - N/A   Clear
2:30 PM 57.2 °F - 46.4 °F 67% 29.98 in - East 8.1 mph - N/A   Clear
3:00 PM 57.2 °F - 46.4 °F 67% 29.98 in - East 9.2 mph - N/A   Clear
3:30 PM 57.2 °F - 46.4 °F 67% 30.01 in - East 8.1 mph - N/A   Clear
4:00 PM 55.4 °F - 48.2 °F 77% 30.01 in - ENE 4.6 mph - N/A   Clear
4:30 PM 53.6 °F - 48.2 °F 82% 30.01 in - NE 5.8 mph - N/A   Clear
5:00 PM 51.8 °F - 48.2 °F 88% 30.01 in - NE 6.9 mph - N/A   Clear
5:30 PM 50.0 °F - 46.4 °F 87% 30.01 in - NNE 4.6 mph - N/A   Clear
6:00 PM 48.2 °F - 46.4 °F 93% 30.01 in 4.3 mi ENE 6.9 mph - N/A   Unknown
6:30 PM 48.2 °F - 44.6 °F 87% 30.01 in 4.3 mi NE 8.1 mph - N/A   Unknown
7:00 PM 46.4 °F 42.9 °F 44.6 °F 93% 30.01 in 4.3 mi NE 6.9 mph - N/A   Unknown
7:30 PM 46.4 °F 42.9 °F 44.6 °F 93% 30.01 in 4.3 mi NE 6.9 mph - N/A   Unknown
8:00 PM 44.6 °F 40.7 °F 42.8 °F 93% 30.04 in 4.3 mi NE 6.9 mph - N/A   Unknown
8:30 PM 44.6 °F 40.7 °F 42.8 °F 93% 30.04 in 4.3 mi ENE 6.9 mph - N/A   Unknown
9:00 PM 44.6 °F 40.7 °F 42.8 °F 93% 30.04 in - ENE 6.9 mph - N/A   Clear
9:30 PM 44.6 °F 39.7 °F 42.8 °F 93% 30.04 in - East 9.2 mph - N/A   Clear
10:00 PM 42.8 °F - 41.0 °F 93% 30.04 in - East 1.2 mph - N/A   Clear
10:30 PM 42.8 °F 39.3 °F 41.0 °F 93% 30.04 in - NE 5.8 mph - N/A   Clear
11:00 PM 42.8 °F 39.3 °F 41.0 °F 93% 30.04 in - NE 5.8 mph - N/A   Clear
11:30 PM 42.8 °F 39.3 °F 41.0 °F 93% 30.04 in - NE 5.8 mph - N/A   Clear